Powrót do katalogu

CZ-6A DEB

AktywnySSO
NORAD 54625·DEBRIS·🇨🇳 China

Wystrzelony Nov 11, 2022 z Taiyuan Satellite Launch Center

Loading…

Następne Przeloty (najbliższe 24 godziny)

TLE

ŚwieżeSource: Space-Track

Epoka: Sep 14, 2026, 15:38 UTC

1 54625U 22151PB  26257.65177038  .00000164  00000-0  15106-3 0  9999
2 54625  98.9522 222.8554 0131997 212.6122 146.6836 13.91999805193767

Śledź CZ-6A DEB w czasie rzeczywistym z AllMySat

Download on the App Store